Theta_e
314 312 311 311 310 310 311 311 311 310 310 310 310 309 309 308 309 312 314 314 314 314 315 316 317 316 315 316 317 319 320 319 317 316 316 314 313 311 312 314 315 316 313 314 315 316 318 317 316 316 318 321 323 325 324 324 322 324 329 327 323 322 319 319 319 318 318 318 317 316 316 315 314 314 313 314 314 314 316 314 312 312 310 310 309 308 308 307
314 313 312 311 311 311 311 312 312 311 311 311 311 310 310 309 309 311 314 315 315 314 314 316 317 316 315 315 318 319 321 323 319 317 316 315 315 314 314 315 316 315 312 314 315 314 316 316 316 317 319 322 324 324 324 325 322 324 327 324 321 321 319 318 317 317 317 316 316 316 315 314 314 314 313 314 315 314 314 312 312 311 309 309 308 307 306 306
315 314 313 312 312 312 312 312 312 312 312 311 311 311 311 311 309 311 314 315 317 315 314 316 316 316 316 315 317 316 318 324 322 317 316 314 315 316 316 316 315 314 313 313 314 314 315 315 316 317 319 321 323 324 324 324 323 323 323 322 321 319 317 316 316 316 316 316 315 315 315 314 313 313 313 313 314 314 312 312 311 310 309 308 307 306 305 305
315 315 314 312 312 312 312 312 313 313 313 312 311 312 313 312 310 311 312 314 318 317 315 316 315 316 316 315 315 315 319 326 322 317 316 315 315 317 316 316 315 314 314 314 314 314 314 316 317 317 320 322 322 323 323 322 322 321 320 321 319 317 318 316 315 315 315 315 314 314 315 314 313 313 314 314 314 314 312 311 310 309 308 307 306 305 304 304
316 316 315 314 313 312 313 313 313 313 313 313 312 313 314 313 312 311 312 314 318 319 316 315 317 316 316 317 315 317 325 327 321 317 316 315 316 317 316 315 314 314 315 316 316 315 316 317 318 319 321 321 322 322 320 318 318 319 319 319 317 316 318 316 314 315 315 314 314 314 313 312 313 313 313 314 314 313 311 310 308 308 306 306 305 305 304 304
318 317 316 315 313 313 313 313 313 314 313 314 314 315 316 316 313 311 311 313 317 320 317 316 316 316 317 317 314 319 327 325 319 317 315 315 316 315 315 314 313 315 316 317 317 317 317 318 317 319 319 317 318 319 318 318 317 318 318 317 316 315 316 314 314 315 314 313 313 313 312 312 313 313 313 313 313 311 310 308 307 306 305 305 304 304 304 304
318 318 317 316 314 313 313 313 313 314 314 315 315 317 318 318 315 312 311 312 317 319 317 316 316 317 318 317 320 325 327 321 316 315 314 316 316 313 313 313 313 315 316 317 316 317 318 318 317 317 317 317 318 317 317 318 317 317 318 317 315 314 315 314 314 314 313 313 313 312 312 312 313 313 313 313 312 310 308 307 306 305 304 304 303 303 303 303
319 319 318 317 315 314 314 314 314 314 314 315 316 317 319 320 317 313 311 312 316 318 317 316 315 318 317 318 327 331 325 319 315 314 314 315 314 313 313 313 313 315 316 316 316 316 317 317 316 316 316 319 317 316 317 317 317 318 318 316 315 314 314 314 313 313 313 312 312 312 312 313 314 313 313 312 311 308 307 306 306 305 304 304 303 302 303 302
320 320 319 318 316 314 314 314 314 314 314 315 317 318 319 320 319 316 312 312 315 317 317 316 316 317 315 318 327 328 321 317 314 313 314 314 314 313 313 312 313 316 317 316 316 316 317 317 318 317 316 318 317 315 317 315 316 317 316 315 315 315 314 313 313 312 312 312 311 311 312 313 313 313 313 311 309 307 306 306 305 304 304 303 303 302 302 302
320 320 320 319 317 315 315 315 315 315 315 317 318 318 319 319 320 317 313 312 315 317 317 316 316 316 317 321 326 324 318 314 313 312 312 313 314 313 312 312 312 315 317 317 316 315 316 317 318 318 317 318 316 315 316 316 316 315 314 314 314 315 314 313 313 312 312 311 311 311 312 312 313 313 313 310 308 307 306 305 305 304 303 302 302 302 301 300
321 320 320 319 317 316 315 315 316 316 317 318 318 319 319 319 320 318 314 312 314 318 318 316 316 316 319 323 324 323 316 313 314 312 312 313 313 314 312 311 312 313 316 317 317 315 315 316 316 317 318 316 314 315 316 315 315 314 313 313 313 314 314 313 312 313 312 311 312 312 312 313 312 312 312 310 307 306 306 305 305 304 303 302 302 302 301 300
321 320 320 319 318 316 316 316 316 317 318 319 320 320 320 320 320 319 314 312 314 318 318 316 316 316 319 323 321 319 315 312 313 312 312 312 313 314 313 312 311 312 314 317 318 315 313 314 315 316 318 316 314 315 315 314 314 313 313 313 314 313 313 313 312 313 312 312 313 312 312 313 312 312 311 309 307 306 306 305 305 304 303 303 302 301 301 300
322 320 319 319 318 316 316 316 317 317 318 320 321 320 321 321 320 319 315 312 314 318 317 316 315 315 321 323 317 315 314 313 314 313 312 312 313 315 315 313 312 311 312 315 316 313 311 312 314 316 317 314 314 314 313 312 312 313 313 313 314 314 313 313 313 313 312 313 314 312 312 312 312 313 311 308 307 306 305 304 304 304 303 303 302 302 301 300
322 321 319 318 318 317 316 316 317 317 319 321 321 321 322 321 320 318 315 312 315 318 317 316 315 317 323 321 315 314 314 314 315 313 311 311 312 315 317 314 312 312 311 313 314 311 311 312 313 315 315 313 314 314 313 313 312 313 314 315 317 316 314 313 313 313 312 313 315 312 311 312 312 313 310 308 307 305 305 304 303 303 303 302 302 302 302 300
322 321 319 318 317 317 316 317 317 317 319 320 320 322 321 320 320 317 314 312 316 318 316 316 316 319 323 319 315 315 314 316 316 312 310 310 310 315 317 313 312 313 311 312 313 311 311 312 313 315 315 314 313 313 315 314 313 314 316 318 319 317 315 314 313 313 312 313 313 312 312 311 311 311 310 308 307 305 304 303 303 303 302 302 301 301 301 301
322 321 319 318 317 316 316 317 316 317 319 320 321 322 320 319 318 315 314 314 317 317 317 320 319 318 321 318 316 316 316 318 316 312 311 310 310 313 314 311 313 314 313 313 312 311 311 312 314 316 313 312 313 314 317 316 315 316 317 317 318 316 314 313 312 312 312 312 311 311 311 312 311 310 309 307 306 305 303 303 302 302 301 301 301 301 301 301
321 320 319 318 317 316 316 316 316 316 317 319 321 321 319 318 317 316 315 315 318 317 317 320 320 318 318 317 317 316 317 317 315 313 313 311 310 311 311 312 314 314 314 314 312 312 313 313 316 316 313 312 314 315 317 318 318 319 318 317 316 314 312 312 312 312 312 311 311 311 310 312 311 309 307 306 306 305 303 302 302 302 301 301 301 301 301 301
321 319 318 317 316 316 315 315 316 315 316 319 320 320 318 317 317 317 316 316 319 320 319 320 322 324 321 316 318 318 317 317 314 313 313 312 309 310 312 312 312 312 314 315 314 314 315 314 316 317 316 315 313 314 316 317 318 319 318 317 316 313 311 311 311 312 312 311 311 310 311 311 311 308 307 306 305 304 303 302 302 301 301 301 301 301 300 300
321 319 316 316 316 315 315 315 315 312 313 317 319 318 317 317 319 319 315 315 320 323 322 321 321 324 322 317 318 317 315 315 313 313 314 311 309 311 312 312 312 313 315 318 317 316 316 317 318 319 319 315 311 312 314 315 314 314 315 315 315 314 313 312 312 311 311 311 311 310 310 310 310 309 306 306 305 303 302 302 302 301 301 301 301 301 301 300
320 318 315 315 315 315 315 314 314 312 311 313 316 316 313 316 320 320 316 313 318 321 320 320 318 320 320 318 318 316 314 314 313 315 313 310 310 313 313 313 315 317 318 319 319 317 316 319 322 319 315 310 309 312 312 312 311 311 314 315 315 315 314 313 312 311 310 310 310 310 310 309 309 309 306 305 304 303 302 302 302 301 301 301 301 301 300 300
320 318 315 314 314 314 314 313 313 311 309 311 311 311 310 313 318 319 316 314 317 319 319 319 317 317 317 317 316 313 314 316 314 315 313 309 312 315 314 313 317 320 319 319 320 317 316 320 321 314 310 308 309 311 310 311 311 311 314 315 315 317 315 313 312 311 310 311 310 310 310 308 309 309 306 304 304 303 302 301 301 300 301 301 301 300 299 299
321 318 315 313 313 313 312 311 311 310 311 310 309 314 313 311 315 314 313 316 318 318 319 317 316 316 315 315 314 311 314 316 314 316 312 310 315 315 314 314 315 318 319 319 320 318 318 319 315 310 310 310 310 311 310 311 312 313 315 316 317 318 315 313 312 311 310 310 309 309 309 308 309 309 306 304 303 302 302 301 301 301 301 301 300 299 298 298
321 318 315 313 312 312 310 310 310 308 310 307 308 314 311 308 312 311 313 319 320 319 319 318 317 317 315 315 313 311 315 314 314 316 311 310 314 314 314 314 313 317 318 317 317 317 318 317 312 310 311 310 310 312 312 311 313 315 316 316 317 318 316 315 313 311 309 309 310 310 309 308 308 308 306 304 303 302 302 302 303 302 300 300 299 299 298 297
321 318 315 312 311 311 308 310 310 306 311 310 306 308 307 308 312 312 317 324 322 320 319 317 318 318 317 314 312 312 313 313 312 311 310 311 312 312 314 312 312 317 317 313 313 315 316 314 312 312 311 311 312 314 315 315 315 316 318 318 317 316 314 313 312 310 308 310 311 309 308 308 309 307 305 304 302 302 302 301 301 301 300 300 299 298 298 297
320 318 315 311 311 309 307 312 309 304 313 316 309 305 306 310 312 313 318 322 321 322 320 319 321 319 315 312 313 313 312 312 311 309 308 310 310 311 312 311 312 317 317 313 312 314 314 312 313 314 313 314 316 316 316 318 315 314 318 318 315 312 312 313 313 311 310 311 310 308 308 310 310 308 305 304 303 302 300 300 299 299 299 299 298 297 297 297
319 319 314 311 311 307 310 318 312 306 316 319 310 303 305 309 310 311 318 321 321 324 323 322 323 320 314 314 314 313 314 313 309 308 308 308 308 310 311 313 313 315 313 311 311 313 311 310 313 315 315 317 318 317 317 318 315 314 316 315 311 310 312 313 313 312 312 311 310 309 309 308 309 310 307 304 304 302 300 299 299 299 299 298 297 297 297 296
319 319 315 310 308 306 314 319 312 311 319 318 308 302 307 310 309 313 323 326 325 326 323 321 320 318 315 314 313 314 319 315 308 307 307 307 308 309 311 314 314 314 309 310 316 315 311 311 313 314 314 315 315 315 316 316 314 315 314 311 309 309 312 312 312 312 312 311 310 310 309 307 307 309 308 305 305 303 299 299 299 299 298 297 296 296 296 296
318 318 316 311 305 303 308 310 310 316 316 309 303 303 308 310 311 318 326 326 326 325 322 318 315 315 315 313 312 313 315 313 312 310 305 306 308 308 312 313 312 312 308 311 318 316 312 315 315 315 314 314 314 314 314 314 314 312 309 308 308 309 310 310 311 312 311 310 309 310 310 309 309 309 308 306 305 302 299 298 298 298 297 296 296 296 295 295
318 318 317 311 304 303 304 303 310 316 310 302 303 306 308 308 313 323 324 322 325 323 319 317 315 315 316 313 313 313 312 312 314 311 306 307 308 308 311 311 309 310 309 310 314 313 312 312 311 312 313 312 312 311 311 312 312 310 308 310 311 310 311 311 312 313 310 308 307 308 310 310 311 311 308 307 305 302 299 298 297 297 297 296 295 295 295 295
317 318 317 311 307 309 306 305 309 308 304 303 305 308 310 314 320 324 324 323 324 321 317 317 318 318 317 315 315 314 312 313 312 308 307 308 308 308 309 308 306 309 312 311 312 312 309 307 307 310 311 311 309 310 310 309 310 310 311 313 312 312 312 311 313 312 308 309 308 308 309 309 311 311 308 306 304 302 300 298 297 297 296 295 295 295 295 295
317 318 317 312 308 306 306 312 313 303 300 304 306 310 315 322 323 320 322 320 320 321 318 318 320 318 316 319 319 315 313 315 312 310 311 309 309 309 309 310 310 312 315 315 315 314 311 310 312 311 310 310 309 310 310 308 309 311 311 311 311 312 310 309 313 312 309 311 309 306 307 308 309 310 305 301 300 299 299 297 296 296 295 295 295 295 295 295
318 318 318 315 307 301 306 316 313 304 301 303 309 315 318 321 321 318 319 318 318 323 322 321 321 318 318 321 322 319 319 320 314 313 316 315 314 313 313 316 316 319 322 320 317 317 316 315 314 311 309 309 311 311 311 311 310 310 310 309 310 312 311 310 314 314 312 310 305 303 305 305 305 306 303 299 297 297 297 296 296 295 294 295 295 295 295 296
318 318 319 318 310 303 306 309 307 303 302 304 313 318 316 320 323 321 321 319 321 325 324 323 322 320 321 321 322 322 322 322 316 313 316 315 315 317 317 316 316 320 322 320 317 317 319 316 313 311 310 310 312 312 313 313 311 309 309 308 309 310 310 309 311 312 313 309 304 302 303 303 303 304 302 299 296 296 296 296 297 295 294 294 294 295 295 295
318 318 318 319 315 308 305 303 302 301 303 310 317 316 316 320 322 322 325 323 322 323 321 321 321 321 322 321 321 322 321 322 318 313 314 314 313 317 318 315 315 315 315 316 315 314 318 320 315 312 311 310 312 311 310 309 308 307 307 306 308 309 309 309 309 309 311 309 305 303 303 305 306 304 301 298 296 297 296 296 297 296 295 295 295 295 295 294
317 317 317 319 318 315 308 303 302 302 307 316 316 313 319 321 319 320 323 323 322 320 318 320 321 322 323 322 322 321 320 322 318 313 315 315 314 317 318 317 315 311 313 318 317 313 317 320 314 308 306 307 309 308 306 307 308 307 305 307 309 308 307 308 307 306 307 305 303 303 304 305 304 301 299 297 296 296 297 296 296 295 295 295 295 294 294 294
316 315 316 317 317 318 314 307 302 302 311 317 312 314 318 318 320 322 320 319 321 321 320 319 320 323 323 323 322 319 317 318 316 314 316 315 314 317 317 317 316 312 313 319 318 315 317 319 311 305 305 303 303 304 304 307 309 306 305 308 306 303 303 306 306 304 305 304 302 303 304 303 302 301 298 298 297 296 297 296 294 294 295 294 294 294 294 294
315 313 315 316 316 317 316 309 302 305 313 314 310 315 317 315 318 319 319 320 319 320 320 318 320 324 323 322 323 320 316 316 315 315 318 317 316 317 315 316 315 312 313 316 317 316 317 316 310 307 307 303 300 302 302 303 305 304 305 305 303 302 301 302 304 303 303 303 303 304 304 302 303 303 299 297 297 297 296 295 294 294 294 294 294 294 293 293
313 312 313 315 316 316 315 307 304 309 315 311 308 314 316 316 315 315 321 323 319 319 320 319 320 323 322 320 322 319 315 317 317 314 317 320 320 318 315 316 314 310 311 313 313 314 315 317 312 306 305 302 300 304 304 302 302 302 303 302 302 304 303 302 303 303 303 303 304 305 304 302 303 303 299 298 297 297 296 295 294 294 293 293 293 293 293 292
312 311 313 315 315 316 313 307 308 314 314 308 310 314 316 317 315 316 320 320 319 320 319 319 318 319 321 320 320 319 315 317 319 315 317 320 320 317 314 316 315 308 307 309 311 311 312 315 314 305 302 302 301 303 305 303 301 300 300 299 300 301 302 302 302 302 303 303 303 303 303 303 303 302 301 298 296 296 295 294 294 294 293 293 293 293 293 292
310 313 315 314 313 314 311 308 311 314 310 308 311 315 317 318 316 317 318 317 318 319 318 319 318 318 319 319 321 321 317 319 320 317 319 318 318 318 313 314 315 307 304 307 309 310 309 311 312 305 300 301 303 303 305 305 302 300 298 298 299 298 300 302 301 301 302 301 301 301 301 302 301 299 298 297 295 296 295 294 294 294 293 293 293 293 292 292
310 315 316 312 311 311 309 311 312 310 308 309 312 314 317 319 317 317 317 317 317 316 315 317 319 318 318 318 320 320 319 321 319 318 320 317 316 319 314 311 312 307 305 307 308 308 309 309 309 306 302 303 304 302 302 303 302 301 299 299 300 299 300 302 300 300 301 299 299 300 299 300 300 297 296 296 296 296 295 294 294 293 293 293 293 293 292 292
312 317 315 311 310 309 311 314 313 310 310 311 313 315 317 317 318 318 317 316 317 316 314 315 316 317 317 317 319 320 321 321 319 319 319 317 317 318 314 310 308 306 306 307 306 306 309 308 307 307 306 304 303 300 299 299 300 301 300 300 300 299 299 301 300 302 302 298 297 299 299 299 298 298 298 297 296 295 295 295 294 293 293 293 292 292 292 292
313 315 312 309 308 309 313 317 316 314 315 314 314 317 318 317 317 317 316 315 316 316 315 315 315 315 316 317 317 318 320 319 319 319 317 318 317 311 309 309 306 306 306 306 305 304 306 308 307 307 306 302 298 296 297 297 297 298 298 298 299 298 299 300 299 300 301 299 298 299 298 298 297 298 298 297 296 296 296 295 294 293 293 293 292 292 292 291
313 313 310 308 308 310 315 319 319 318 317 316 317 318 318 318 317 315 316 315 315 315 315 314 314 314 315 318 316 316 318 318 320 320 319 321 314 303 304 307 305 305 306 306 306 306 307 308 307 308 309 307 302 298 297 297 296 296 297 297 298 298 298 299 298 298 299 298 297 297 298 298 297 298 298 296 296 296 296 295 294 293 293 292 292 292 291 291
313 314 312 309 308 310 315 317 318 319 318 317 318 318 318 319 317 316 316 315 314 314 314 315 315 314 315 318 317 316 317 317 318 320 318 319 311 300 300 304 303 303 304 304 306 307 308 307 306 310 314 316 316 310 304 300 297 296 297 297 298 298 297 298 298 298 298 297 296 297 297 297 296 297 297 296 295 295 295 294 294 293 293 292 292 292 291 291
315 315 313 310 308 309 312 312 314 318 319 319 319 319 318 318 318 317 316 316 315 314 314 316 316 315 316 317 316 316 317 316 318 318 315 315 308 299 298 300 299 301 301 302 306 307 306 304 303 308 312 315 316 309 302 300 297 297 297 296 297 298 297 297 297 297 297 297 297 297 296 296 296 296 296 296 296 295 295 294 293 292 292 292 292 292 291 291
315 315 313 312 311 310 310 311 312 315 318 319 320 319 319 319 319 318 316 316 316 315 315 316 315 316 316 316 316 316 316 316 317 316 315 314 305 297 297 298 297 299 299 301 305 305 304 304 303 304 306 308 309 304 300 300 297 296 297 295 295 297 298 299 297 296 297 297 297 296 296 297 296 296 296 295 295 295 294 293 292 292 292 292 292 291 291 290
314 314 313 313 313 312 311 311 312 314 316 318 319 319 320 320 319 319 318 316 316 317 316 317 316 316 316 316 316 316 316 316 317 315 315 316 308 299 297 297 296 298 299 300 301 302 302 304 304 303 303 303 303 301 300 299 297 296 296 296 295 296 297 298 297 296 296 296 296 296 296 296 296 295 295 295 294 294 293 292 292 292 292 292 291 291 290 290
314 315 315 314 313 313 313 312 312 313 315 316 318 319 319 320 320 319 318 317 317 316 316 317 317 316 316 316 316 316 316 316 317 316 314 315 312 305 302 301 298 297 298 299 299 299 301 303 302 301 302 301 300 300 299 298 297 296 296 296 295 295 295 296 296 296 296 295 295 295 295 295 295 295 295 294 294 294 293 292 292 292 292 292 291 290 290 289
313 314 315 315 315 314 315 314 312 314 315 315 318 319 318 319 319 318 318 319 318 316 316 316 317 317 316 316 315 316 316 315 317 317 315 314 312 307 306 306 301 297 297 298 298 298 300 302 300 299 300 300 299 299 299 298 297 296 296 296 295 295 295 295 295 295 296 296 295 295 295 295 295 295 295 295 294 293 292 292 292 292 292 292 291 290 290 289
312 312 313 315 316 316 316 315 314 314 315 315 317 318 317 318 318 317 318 318 318 318 316 315 316 317 317 316 315 315 315 315 317 317 315 315 313 309 308 307 303 299 298 297 298 298 299 300 299 299 301 302 300 298 298 297 296 296 296 296 296 295 295 295 295 295 295 295 295 295 295 295 295 295 295 295 294 292 292 292 292 292 291 291 290 290 290 288
312 313 313 314 315 315 315 316 316 316 316 316 316 316 317 317 316 316 317 318 318 318 316 316 316 316 316 317 316 315 314 314 312 309 308 310 310 309 308 305 303 301 298 297 298 298 298 299 299 300 302 301 298 296 296 295 297 299 298 297 296 296 296 296 296 296 295 295 295 296 296 295 295 295 295 294 293 292 292 292 291 291 291 290 290 290 288 287
Wind_Speed
23 24 25 26 27 27 28 28 28 30 30 30 30 30 31 30 30 27 23 23 24 25 22 17 11 4 9 12 12 13 12 11 12 17 13 7 9 10 9 10 12 12 10 8 10 11 6 5 4 6 2 4 1 2 1 0 1 1 0 1 3 2 2 3 4 4 3 3 6 6 7 6 4 4 3 3 2 3 5 7 10 16 15 14 16 20 21 20
23 24 25 25 26 27 27 28 28 29 30 30 30 30 30 29 29 26 22 24 26 25 21 16 12 5 9 13 12 10 8 5 8 15 10 9 12 11 10 11 12 11 10 7 8 10 6 5 6 8 4 3 1 2 2 1 1 1 1 2 2 3 1 3 5 5 5 5 7 7 7 5 4 4 3 4 4 5 7 6 8 13 12 14 17 19 20 20
22 23 24 25 26 27 27 27 28 28 29 29 29 29 30 29 28 26 23 25 27 25 20 14 12 6 8 13 10 6 2 4 1 8 7 12 14 12 12 12 11 11 10 7 7 8 5 5 8 7 4 2 1 1 1 1 0 0 1 1 0 2 1 3 5 5 6 7 6 6 6 4 5 4 2 2 6 8 7 6 7 10 10 10 11 15 18 19
22 23 24 25 26 26 26 27 27 28 29 29 28 28 29 29 28 26 24 25 28 25 18 12 10 6 4 11 11 5 1 3 1 4 7 13 14 12 11 11 12 11 10 8 8 8 7 7 8 5 2 2 2 2 1 1 1 1 0 1 2 1 1 2 5 5 6 6 5 5 5 4 5 2 2 2 4 6 6 7 9 9 9 9 8 11 15 17
21 22 24 25 25 26 26 27 26 27 28 28 28 27 28 29 28 26 25 25 27 24 16 10 8 6 3 8 11 6 1 1 2 5 11 14 12 11 10 11 13 11 11 11 10 10 9 8 7 3 1 2 2 2 2 2 1 1 1 3 4 2 0 2 4 5 6 5 4 5 4 4 5 1 3 5 5 4 5 9 10 10 9 9 9 10 13 14
21 22 23 24 25 26 26 26 26 26 27 28 28 27 27 28 28 27 25 25 25 23 15 8 6 5 5 6 10 6 1 0 3 9 14 13 10 10 11 12 13 11 12 12 11 9 7 6 5 1 1 3 0 1 3 3 1 1 1 5 5 3 1 1 4 4 5 3 4 4 4 3 4 2 6 7 8 7 9 10 10 10 10 12 11 11 11 11
20 21 23 24 25 25 26 26 26 26 26 27 27 27 27 28 29 27 24 24 24 21 15 6 3 5 6 5 6 4 1 3 5 11 13 11 8 10 12 13 13 12 11 10 11 9 6 6 5 4 3 3 0 1 2 2 3 2 1 4 3 3 2 1 4 4 3 2 3 4 5 4 4 3 6 7 10 10 11 11 11 12 12 13 12 10 9 10
19 21 22 23 24 25 25 25 26 26 25 26 26 26 27 27 29 28 24 24 22 19 14 7 1 4 2 1 1 2 2 2 7 11 11 8 7 10 13 13 12 11 9 8 9 8 5 5 5 4 3 1 2 2 2 2 4 4 0 2 2 1 1 1 3 3 2 2 3 5 6 2 3 4 6 8 11 11 10 10 10 11 11 10 10 9 9 10
19 20 22 22 24 24 25 25 25 25 25 25 25 25 26 27 28 28 25 22 21 18 12 8 2 6 6 4 3 2 1 1 7 11 10 9 8 10 12 12 11 11 8 6 9 10 5 4 5 3 3 2 3 4 3 2 2 2 1 0 2 3 5 3 3 2 1 1 4 6 5 1 5 5 6 10 11 10 10 10 9 9 9 9 9 9 9 9
18 20 21 22 23 24 25 25 25 25 25 25 25 25 25 26 27 27 25 22 20 17 11 7 2 4 7 5 3 3 1 3 6 10 10 9 8 8 10 12 12 10 9 6 8 10 5 3 4 2 2 2 2 3 0 1 1 1 2 2 4 4 5 5 4 3 2 2 5 5 5 2 5 4 4 9 11 10 10 9 8 8 9 9 8 7 9 9
18 19 20 21 23 23 25 25 25 25 25 25 24 24 24 25 25 25 24 21 19 18 11 5 2 3 6 5 3 2 2 4 7 10 10 10 9 8 10 12 12 10 9 6 6 7 4 4 5 2 1 0 1 3 3 1 1 2 4 3 6 5 4 5 5 4 4 0 5 5 6 3 4 3 5 11 10 10 11 9 8 8 8 9 8 7 7 8
18 18 20 21 22 23 24 24 25 25 25 25 24 24 24 24 24 24 23 19 19 18 12 7 5 6 7 4 1 1 3 3 7 10 12 12 10 9 9 10 11 8 7 6 5 5 4 5 4 3 1 1 3 3 2 1 2 3 4 2 5 6 5 6 6 5 5 1 4 6 4 2 5 4 9 14 10 10 11 8 8 7 7 7 7 6 5 7
18 18 19 21 21 23 23 24 25 25 25 25 24 25 23 23 23 22 22 18 18 18 12 9 6 7 6 1 1 2 2 5 8 11 12 11 10 9 9 10 11 8 5 5 4 4 4 4 3 4 3 2 3 1 0 1 2 3 3 1 4 5 4 7 6 6 6 2 2 5 3 2 6 8 12 13 11 11 10 7 7 6 6 6 6 6 5 7
17 18 19 20 21 22 23 24 25 25 26 25 25 25 23 23 21 20 20 16 17 16 10 8 4 6 4 1 1 0 3 5 8 11 12 10 10 8 6 9 11 8 6 4 4 4 3 3 3 4 2 3 2 1 1 1 1 2 1 2 3 2 3 6 4 6 6 3 3 2 1 3 1 9 12 11 10 10 9 7 7 6 6 5 5 5 4 6
17 17 18 19 21 21 23 24 24 25 25 25 25 25 24 22 19 19 18 14 16 13 6 4 2 3 2 1 0 1 2 4 5 11 12 12 12 5 4 10 10 7 7 5 4 3 2 2 2 3 1 3 2 2 4 3 2 2 0 2 2 2 1 4 1 3 3 2 4 1 2 3 3 8 10 9 9 10 10 7 7 6 6 6 5 5 4 4
16 17 17 18 20 21 22 23 24 25 24 25 25 25 24 20 18 18 14 12 14 8 3 3 2 2 2 1 1 1 2 3 3 9 11 12 12 5 7 11 9 6 6 5 5 4 3 2 2 1 1 1 2 3 4 1 2 2 0 3 3 3 1 2 1 2 1 2 2 1 2 4 1 8 8 8 8 9 10 7 7 6 6 6 4 4 4 4
15 16 16 17 19 20 21 22 23 24 24 25 25 26 23 16 17 15 9 14 12 2 1 4 4 3 1 1 1 1 2 2 4 7 9 12 11 8 8 7 5 5 5 6 6 4 3 3 2 1 0 2 2 2 4 4 1 1 2 3 3 4 4 2 2 3 2 2 1 2 3 6 2 8 7 7 9 8 9 8 7 6 5 6 4 4 4 4
14 15 15 16 18 19 20 21 23 24 24 24 25 25 17 13 17 8 7 18 9 2 1 3 3 3 1 1 1 1 3 4 6 5 8 11 12 9 6 4 4 6 5 5 4 3 3 3 2 0 1 2 2 5 3 3 2 3 3 3 4 4 5 6 3 2 3 2 2 5 4 7 3 8 7 7 8 8 8 7 7 6 6 5 4 5 4 5
13 14 14 15 16 17 19 20 22 22 23 24 25 21 10 11 12 2 7 19 6 2 2 1 2 3 1 1 1 4 6 5 5 3 5 11 12 9 6 5 3 3 4 2 1 2 0 1 1 2 2 2 4 4 1 3 3 4 4 3 5 5 6 8 3 2 2 1 3 5 5 7 6 5 8 6 7 8 7 7 6 5 6 5 5 5 4 4
12 13 13 14 15 16 17 19 20 21 22 23 24 16 7 9 6 2 8 13 1 1 3 3 3 4 3 1 2 7 6 4 2 1 5 12 12 8 3 5 3 1 1 3 4 2 2 3 3 1 3 4 4 3 1 3 2 3 4 4 6 6 6 7 2 3 3 1 4 5 7 10 8 5 9 8 7 8 7 7 6 5 5 5 5 4 4 3
11 12 12 13 14 15 16 18 19 19 18 20 19 10 3 5 3 2 6 6 2 1 2 3 2 4 3 1 3 7 3 3 2 1 7 11 7 4 2 1 2 1 2 5 5 1 2 4 2 3 3 2 2 1 1 3 3 4 5 5 6 6 6 5 2 3 4 2 3 7 10 11 9 5 9 9 7 8 8 7 6 6 6 5 5 4 3 2
11 11 12 12 13 14 15 16 17 16 16 17 15 8 4 3 1 2 2 5 3 2 3 2 1 3 2 1 2 3 2 3 1 2 8 10 2 1 4 4 4 4 6 7 3 2 3 3 1 3 1 1 1 2 3 4 4 5 5 5 6 3 3 5 1 1 2 2 3 8 9 9 8 4 10 9 7 6 6 7 6 6 6 5 5 4 2 3
10 11 12 11 12 12 13 15 14 14 15 14 11 6 2 2 3 3 1 4 4 2 3 2 2 3 3 2 1 2 3 2 1 1 7 9 1 1 2 3 3 5 6 4 4 4 5 2 2 1 1 1 2 3 4 5 4 5 5 5 6 1 1 3 1 3 6 5 6 8 7 7 4 5 8 6 6 6 6 7 6 5 6 5 4 4 3 4
10 11 11 11 12 11 12 13 9 10 11 9 9 6 2 2 3 3 1 3 3 1 1 1 2 1 2 2 1 1 2 1 1 1 5 6 2 1 0 1 3 5 2 4 3 5 7 3 1 0 1 1 3 4 4 3 3 4 4 4 4 0 1 4 3 6 8 6 5 6 7 6 5 8 7 5 6 6 7 7 6 5 6 5 4 4 5 4
10 10 11 10 10 10 11 9 6 9 8 5 7 6 3 2 5 4 2 2 3 1 1 0 1 1 1 2 0 1 0 1 2 2 4 4 1 1 0 1 1 4 3 4 4 6 6 3 0 0 1 0 2 4 2 1 2 4 1 1 1 1 2 4 5 6 6 4 2 2 5 5 6 9 7 6 6 7 7 8 7 6 5 5 4 5 5 3
11 10 10 10 10 9 8 4 5 9 4 1 5 5 3 1 4 3 2 1 3 1 1 0 1 1 2 2 1 0 1 1 1 2 3 3 0 0 1 0 2 2 3 2 3 4 3 1 2 0 1 1 3 4 1 3 1 3 2 1 2 1 4 5 6 4 2 4 3 2 1 5 3 7 8 8 8 8 8 7 7 6 5 5 4 4 3 2
12 10 10 9 9 9 4 1 5 7 2 1 5 5 2 1 4 2 1 1 3 2 2 1 1 2 2 1 1 0 1 1 2 0 1 2 0 2 1 2 1 1 0 1 2 2 2 3 1 2 1 2 3 3 1 2 1 2 3 2 0 3 6 6 5 4 4 6 6 4 5 6 5 6 10 12 9 8 8 6 6 6 5 5 4 3 2 2
12 10 9 8 7 6 2 2 5 4 2 4 6 4 2 3 3 1 2 2 2 2 2 1 1 1 2 0 1 1 0 3 1 1 1 0 0 2 2 3 2 3 1 2 3 2 2 3 2 3 2 2 2 2 2 1 1 2 2 2 3 5 8 7 6 6 5 5 5 6 5 4 6 3 6 11 10 9 9 8 7 6 5 5 4 2 1 3
12 11 9 8 6 3 2 3 4 3 5 5 4 2 3 4 1 1 2 1 0 2 1 1 2 2 2 1 2 3 2 2 0 0 2 2 2 1 2 1 1 5 3 5 6 4 1 2 2 3 3 3 2 3 2 2 2 1 2 4 5 6 7 6 6 5 4 5 7 6 6 4 5 2 6 7 8 8 8 7 7 6 5 4 3 1 3 3
11 10 9 9 5 1 2 4 4 5 5 4 1 2 4 2 0 1 1 2 0 1 1 1 1 2 3 3 3 4 3 2 2 2 2 1 0 1 1 1 1 4 5 4 7 6 1 3 2 1 2 2 4 3 2 2 1 3 3 4 4 6 6 5 6 4 3 5 6 5 8 8 5 2 6 5 4 7 8 6 6 6 5 4 2 1 3 4
10 10 9 9 5 2 2 2 5 5 4 2 2 3 2 0 1 1 4 1 1 0 2 1 0 1 2 2 1 3 2 3 3 3 3 1 1 2 1 0 1 1 3 4 5 4 1 1 1 0 1 2 4 1 3 3 1 1 1 3 4 4 4 2 1 1 1 5 2 4 1 4 5 2 3 3 3 7 8 7 7 6 4 2 1 2 4 4
10 10 9 9 7 4 3 4 5 5 3 3 3 2 1 1 2 4 3 1 1 2 2 1 1 1 2 2 1 2 1 2 4 4 2 2 2 3 3 3 1 2 4 2 2 3 2 4 2 3 3 1 3 0 1 1 1 2 1 2 3 4 3 2 1 1 3 5 2 5 6 2 6 5 3 7 6 7 7 6 7 5 3 2 3 3 4 5
12 11 10 11 7 5 8 8 8 6 3 3 1 1 1 2 4 4 4 1 1 1 2 2 1 2 3 2 2 2 2 2 4 2 1 3 0 4 3 3 4 2 4 1 3 4 2 2 2 3 2 1 3 2 1 1 2 4 2 2 2 1 3 4 2 2 4 4 3 3 5 3 5 5 5 9 8 8 8 7 7 6 4 3 2 3 4 5
13 12 11 11 9 9 10 10 10 6 2 3 1 2 3 5 4 2 5 4 1 1 2 3 2 2 2 2 3 3 1 4 4 3 1 3 1 3 3 3 4 4 2 2 3 3 3 4 1 3 1 3 4 2 2 1 1 4 3 4 3 2 3 4 1 2 4 5 5 0 3 3 3 3 3 11 9 8 8 7 7 5 4 3 3 4 4 4
14 13 12 13 12 11 10 11 10 6 4 2 1 3 6 6 3 2 5 3 1 2 2 2 2 2 3 4 4 3 1 3 2 3 2 4 4 4 4 4 5 5 3 1 2 1 4 5 1 1 1 2 1 0 2 2 1 2 2 4 1 3 3 3 1 2 2 6 6 2 2 4 3 2 5 10 8 8 8 6 6 5 4 5 4 3 3 4
13 10 10 12 13 12 10 12 11 8 5 2 3 6 7 6 4 3 3 1 1 3 3 1 2 2 4 3 4 3 1 1 1 2 2 5 5 6 5 3 5 8 6 3 1 1 3 5 0 1 1 2 1 2 0 1 0 0 2 1 3 2 2 1 2 1 3 5 6 3 4 4 2 1 3 8 6 7 7 5 6 4 4 4 2 1 3 4
11 7 7 8 11 12 11 11 9 8 4 2 6 8 6 6 7 6 2 2 0 2 3 1 2 4 4 2 3 4 2 1 1 2 2 3 4 6 6 2 4 9 7 3 1 1 1 4 3 1 0 0 2 4 3 1 1 2 2 3 2 1 2 2 1 3 1 6 5 4 6 6 3 2 3 6 6 6 5 5 5 3 4 2 1 1 3 4
7 4 6 9 12 13 11 9 9 7 2 3 8 10 7 7 9 7 3 4 0 2 3 3 3 4 4 3 2 4 4 2 3 3 2 2 3 4 7 3 2 3 1 3 0 1 1 2 3 1 1 1 2 3 2 1 2 2 1 1 2 0 1 2 1 1 2 6 6 5 7 6 5 5 5 8 7 6 4 4 3 3 3 1 2 3 3 5
5 1 4 9 14 16 13 10 8 4 2 5 8 8 7 8 10 7 4 5 3 3 3 5 5 4 5 4 1 3 5 4 5 3 2 3 3 4 7 5 2 1 3 4 2 1 2 2 3 1 2 0 2 1 3 1 1 3 2 2 1 2 2 2 2 2 3 5 6 9 9 3 4 5 8 9 6 5 3 2 2 2 2 2 3 4 4 5
5 2 2 11 16 16 13 11 6 3 5 7 8 7 6 6 8 8 8 7 4 3 4 4 6 5 5 5 4 3 5 6 5 4 3 4 3 3 6 6 5 4 4 5 1 0 2 2 3 1 2 0 1 3 5 5 4 3 2 3 3 2 1 1 1 2 3 5 4 8 10 4 1 0 6 8 5 6 5 2 1 2 0 2 3 3 5 6
4 3 3 11 15 14 14 9 4 5 5 7 8 10 9 6 5 7 8 9 6 5 5 5 6 6 5 5 5 3 4 5 5 5 4 4 4 4 5 6 8 8 4 4 0 2 2 3 4 2 2 4 4 2 2 3 3 4 5 6 7 5 3 2 5 2 2 5 4 5 11 7 2 1 4 6 4 5 5 1 3 2 1 2 2 4 5 6
3 3 4 11 16 17 13 5 4 5 6 8 8 9 8 5 6 6 6 7 7 5 5 6 7 7 7 6 5 3 3 4 6 5 4 5 7 6 4 6 9 9 6 2 1 2 1 1 3 5 5 4 2 0 1 0 1 3 4 5 5 6 6 5 7 3 1 3 2 2 10 7 3 4 4 5 5 5 4 4 3 1 2 2 3 4 5 6
3 3 4 11 17 15 8 6 6 6 8 8 8 11 9 6 6 6 6 6 6 4 4 5 6 8 8 6 6 5 4 4 9 8 5 5 7 4 1 7 10 8 5 2 1 1 1 1 2 6 4 1 0 0 1 2 2 2 5 5 4 6 6 5 5 1 1 4 3 2 8 7 1 3 4 5 5 5 6 5 2 2 2 3 3 4 5 6
3 2 2 9 15 12 7 7 8 9 9 8 9 12 11 9 8 8 8 9 7 5 5 6 6 8 7 5 6 7 6 4 8 7 7 6 4 2 3 5 9 7 3 1 2 4 3 2 2 2 5 3 1 1 1 1 2 4 5 5 5 5 3 1 1 2 2 9 8 6 10 8 1 3 4 6 6 6 6 2 4 4 3 3 4 4 5 7
2 2 1 7 12 10 5 4 5 8 9 10 13 15 13 10 9 11 11 10 8 7 6 5 5 7 5 5 6 8 9 8 7 3 5 5 2 2 3 1 2 3 1 2 1 4 4 2 4 4 6 8 6 4 3 2 3 3 4 6 7 7 7 4 1 2 7 11 10 10 12 10 5 5 5 4 5 6 6 4 4 4 4 4 4 5 6 7
3 4 2 4 6 7 5 2 3 7 9 10 12 14 15 13 9 10 11 11 10 11 10 7 3 5 5 7 7 10 10 10 8 4 3 4 1 1 1 3 4 3 3 4 4 1 1 1 6 9 11 12 9 5 1 3 3 3 5 9 10 10 12 8 4 8 9 5 9 14 13 13 15 11 8 9 8 7 7 4 3 4 3 3 4 4 6 7
4 5 5 4 3 5 6 4 5 7 9 10 9 8 13 15 10 7 11 12 10 11 12 9 7 7 7 8 8 11 10 9 9 10 11 7 2 2 1 3 4 2 3 2 3 2 3 4 9 13 17 17 11 5 2 5 5 7 6 9 11 12 13 12 13 14 6 1 12 17 11 13 18 13 10 9 6 5 6 2 2 2 2 3 3 4 7 9
6 4 5 8 5 6 7 9 11 11 11 12 9 10 13 14 10 8 10 9 9 10 9 8 12 15 14 11 8 9 8 7 9 12 12 8 3 3 1 2 2 1 3 1 3 3 3 6 8 10 16 18 12 9 6 5 7 9 8 8 11 13 14 17 20 17 9 9 17 15 11 16 16 11 11 8 3 6 5 0 2 1 2 3 4 6 9 9
7 2 3 8 8 8 9 11 14 15 17 14 12 14 15 14 15 13 6 4 7 10 9 10 14 16 17 15 11 10 11 8 8 11 9 7 6 5 3 2 3 2 3 2 1 2 3 4 5 7 13 14 10 10 10 8 10 12 11 10 11 14 17 19 20 18 16 19 22 19 19 22 17 13 13 9 5 5 2 2 1 2 3 4 6 8 9 8
7 3 4 5 7 9 6 8 12 13 14 14 14 15 13 16 22 16 8 9 10 6 9 17 20 14 15 17 15 17 18 13 13 14 8 8 7 4 4 4 5 4 3 4 2 2 3 2 2 4 8 10 8 8 9 10 12 15 15 13 14 16 19 20 19 17 16 20 23 22 21 21 16 11 10 8 5 2 2 0 1 1 3 4 6 8 8 7
15 9 8 4 6 10 7 7 10 9 10 14 14 13 13 20 25 18 10 14 16 11 12 21 23 12 10 15 19 23 22 16 15 14 8 9 9 6 6 5 9 8 5 4 4 4 5 3 2 3 4 5 3 6 7 7 9 17 20 19 18 18 19 19 18 15 15 18 21 19 15 16 13 6 4 5 3 2 2 1 1 2 3 4 6 8 7 7
18 12 11 7 6 9 10 9 9 9 11 13 12 15 18 21 21 16 10 12 18 21 19 18 16 9 10 17 21 20 15 8 4 2 1 2 2 3 4 6 11 11 8 7 5 4 5 4 2 3 3 2 3 4 1 3 6 14 15 15 19 21 21 19 16 16 18 17 15 13 13 13 8 3 4 5 2 1 1 2 2 2 3 5 6 5 5 8
Wind_Direction
16 15 14 15 16 16 16 15 16 16 16 15 14 15 14 15 16 18 22 19 12 8 7 8 16 74 143 137 123 114 99 90 69 58 60 25 356 352 347 346 349 355 0 6 0 350 316 260 272 321 256 191 218 163 187 188 7 285 265 274 285 352 63 332 340 19 355 349 7 8 23 29 24 48 21 325 212 161 84 66 61 73 68 62 59 51 50 46
13 13 12 12 13 14 13 14 14 14 14 13 13 13 12 12 14 17 19 15 8 4 5 6 12 47 152 148 133 128 123 125 74 61 47 4 356 343 337 341 346 353 359 10 7 356 346 348 336 325 302 213 177 175 208 176 194 260 324 292 303 35 26 337 356 348 355 3 357 4 6 7 26 39 1 5 85 84 62 45 51 74 68 59 55 50 50 45
10 10 10 10 11 11 11 11 12 13 13 12 11 11 11 10 11 14 15 11 7 2 4 7 8 25 167 168 159 148 155 243 44 56 17 346 344 339 338 341 351 356 356 357 346 335 323 321 303 302 315 283 169 146 222 201 233 340 24 273 311 47 56 13 359 335 359 7 358 355 334 347 30 27 323 4 81 72 54 45 53 69 66 64 55 49 49 45
7 7 7 7 8 8 9 9 10 11 11 11 10 9 9 8 8 11 10 10 8 3 5 11 8 17 169 187 193 196 299 286 0 34 340 335 338 345 348 353 3 1 359 348 319 304 284 281 278 280 312 282 154 146 187 148 351 10 323 167 128 319 201 49 338 326 10 14 355 318 307 356 5 341 297 344 92 77 51 63 70 74 69 70 61 50 48 46
5 5 4 5 6 6 6 6 7 9 9 9 8 8 7 5 5 7 8 9 9 5 5 17 22 37 115 186 195 195 310 302 41 353 333 338 345 356 3 8 9 5 2 346 318 301 288 284 275 240 241 265 166 163 143 100 7 310 273 103 87 329 297 64 314 334 24 10 334 312 333 5 326 310 57 44 94 87 68 81 79 82 78 75 69 56 48 43
2 2 2 2 3 4 4 4 5 7 7 7 6 6 5 3 2 4 6 7 10 8 5 21 44 66 96 145 175 184 292 11 19 344 336 344 358 9 16 15 11 14 6 348 337 331 324 316 301 314 300 279 329 94 109 118 156 250 230 98 73 346 26 57 304 355 38 356 323 328 352 333 296 89 83 74 92 88 87 91 82 85 85 82 74 60 51 42
0 0 359 0 1 1 2 1 3 4 5 5 4 3 2 1 359 360 3 5 8 8 6 14 67 100 103 117 160 195 168 75 6 342 340 352 9 20 24 15 12 18 10 1 359 353 348 337 336 3 312 266 25 53 82 120 177 215 220 115 88 341 5 13 302 347 21 311 327 326 313 280 248 149 104 91 94 92 89 90 88 88 83 81 74 63 57 47
358 358 357 358 358 359 359 359 0 0 2 3 2 1 359 359 356 355 359 2 5 5 4 360 187 158 150 193 220 230 126 54 342 342 350 2 17 23 22 15 12 13 4 10 7 346 337 348 7 8 306 338 26 320 22 27 209 204 144 116 133 190 159 257 274 308 312 271 343 329 304 277 184 139 113 106 101 100 98 97 96 92 82 77 71 67 60 48
355 356 355 355 355 356 357 357 358 358 359 359 359 358 356 356 353 350 354 359 2 1 359 353 273 216 247 267 279 275 134 13 340 351 359 2 15 21 18 14 13 10 358 9 14 351 339 5 22 27 327 350 350 317 26 43 224 215 3 39 220 192 163 191 234 227 257 312 352 337 318 4 131 123 109 115 112 110 110 105 101 99 91 77 68 64 59 52
353 353 352 353 353 353 354 355 356 356 357 356 356 355 352 352 349 346 348 354 358 356 350 353 354 233 254 263 276 274 103 59 355 356 1 3 9 14 16 15 12 13 359 1 26 7 358 6 358 33 353 288 284 297 267 98 226 243 307 294 261 227 157 185 217 171 157 346 347 331 316 299 159 152 121 122 121 121 113 107 107 100 94 85 76 65 58 59
350 350 349 350 350 351 352 352 354 354 354 353 351 351 350 346 344 340 341 349 355 352 342 330 347 302 279 263 274 275 89 50 0 0 6 4 8 10 14 15 10 11 0 358 47 24 354 351 341 343 44 318 307 248 191 132 284 271 312 298 240 215 146 187 207 165 177 319 339 304 296 280 168 173 143 131 126 123 115 111 113 98 96 91 85 77 61 63
347 348 347 347 348 349 350 350 351 352 351 351 348 348 348 342 339 334 335 343 350 349 340 312 286 302 301 263 245 67 79 24 4 12 9 1 8 9 3 7 6 6 358 356 36 23 337 348 340 288 291 335 312 271 176 53 293 291 315 299 188 173 155 196 193 174 197 189 328 300 297 231 181 164 129 129 129 124 120 118 114 98 97 92 88 90 68 61
345 346 345 345 346 347 348 348 348 350 349 349 347 346 345 339 334 328 330 338 347 348 337 319 282 273 302 272 141 77 48 10 13 17 7 0 3 356 349 355 0 354 343 343 343 342 325 338 311 282 326 313 293 327 106 355 280 266 260 217 154 156 186 200 186 180 201 190 298 310 342 226 196 155 127 131 139 128 123 116 110 98 93 89 85 88 71 58
343 344 343 343 344 344 346 346 346 347 346 347 346 344 344 337 328 323 326 333 345 346 335 330 289 255 284 99 119 303 17 24 26 10 0 5 3 356 355 351 349 334 321 324 304 308 316 330 295 284 307 251 261 39 237 200 243 246 180 214 202 189 186 182 175 176 191 192 197 288 293 266 210 133 129 136 140 126 121 111 107 103 95 94 86 79 68 60
341 342 342 341 342 343 344 344 345 345 344 346 345 342 342 333 324 321 322 333 346 347 335 329 292 274 287 169 216 265 18 43 31 4 1 8 7 359 337 333 332 319 308 302 284 292 300 306 277 280 269 207 239 315 271 190 204 239 94 282 267 13 157 165 159 162 177 226 182 137 258 293 23 122 132 133 134 121 120 115 112 111 103 101 87 77 59 57
341 341 340 339 341 341 342 342 343 343 343 345 343 342 340 331 322 320 324 346 349 345 326 321 310 311 297 187 172 203 46 51 1 357 0 3 6 352 325 325 321 305 286 272 273 279 261 242 223 266 356 202 214 260 288 290 227 226 76 317 339 351 299 166 263 178 134 287 213 120 216 276 56 130 128 126 130 118 120 123 120 115 107 99 84 83 59 40
340 340 339 338 339 340 341 342 342 342 342 344 344 343 340 330 323 322 347 359 351 20 46 353 340 306 266 100 134 185 44 23 318 344 0 357 360 353 336 323 313 309 270 240 258 261 200 202 197 86 157 234 262 2 347 342 318 303 34 348 303 304 317 294 239 210 171 162 277 318 246 256 193 135 136 136 131 125 128 131 129 121 112 106 90 81 57 33
339 340 339 336 337 339 340 340 341 342 342 344 346 342 335 332 329 320 21 1 345 166 72 17 354 299 214 37 47 41 3 327 303 332 2 352 348 347 334 295 303 323 293 233 232 226 173 184 180 319 282 213 18 43 25 338 342 302 325 335 297 303 307 280 247 219 218 163 296 299 259 254 222 138 146 149 137 134 133 131 134 126 119 115 94 75 54 33
337 339 339 335 336 337 339 340 340 343 345 345 348 346 339 346 342 200 24 1 351 197 313 344 340 273 253 351 21 354 328 302 302 335 2 349 344 337 302 257 262 313 296 261 269 267 192 339 256 279 322 63 42 43 0 316 343 299 297 299 284 286 275 269 258 182 229 285 263 270 265 263 257 166 156 156 141 134 132 132 133 127 120 107 88 76 53 38
336 338 338 336 335 335 339 339 339 345 349 351 356 358 357 360 356 184 356 353 11 76 323 292 293 256 266 347 346 334 313 268 255 116 7 350 340 331 287 232 219 209 271 328 317 308 64 336 305 339 20 43 26 19 327 307 307 280 275 253 255 258 260 271 276 149 116 37 257 269 276 264 263 213 164 156 144 136 142 143 138 130 115 98 93 82 53 41
334 335 337 338 334 335 339 338 341 347 352 2 13 19 29 15 356 301 338 315 218 101 277 288 329 262 271 333 336 338 314 226 216 94 12 354 330 327 10 308 291 297 319 319 296 180 63 311 311 56 33 18 2 338 278 271 261 263 255 250 255 251 262 288 311 147 114 81 255 266 266 258 264 229 159 154 157 154 154 146 139 126 113 107 106 101 73 47
330 332 336 337 334 335 338 339 342 345 353 13 33 52 87 77 192 215 313 292 267 180 210 254 294 242 224 176 301 331 267 233 165 70 4 354 327 355 1 343 336 324 314 313 314 12 345 292 92 66 22 331 269 216 228 239 241 255 246 246 255 248 286 300 331 99 32 25 264 266 264 265 271 204 157 162 160 143 135 125 125 121 118 116 106 113 96 40
325 331 333 334 335 335 337 339 342 349 1 23 48 65 92 134 180 174 180 289 288 195 191 221 240 212 158 163 278 303 264 263 136 68 357 351 0 102 346 329 329 310 310 347 34 357 303 269 91 69 84 8 277 230 234 243 236 239 241 250 256 241 49 269 272 6 325 299 271 280 274 269 266 154 152 155 132 119 118 114 116 117 118 123 125 127 96 43
320 331 330 332 333 333 336 337 346 1 6 28 52 63 91 165 150 118 158 270 275 211 148 205 267 289 137 142 310 280 271 338 74 36 7 359 358 126 249 0 326 293 322 41 17 295 274 282 24 84 141 28 305 283 266 263 263 258 262 264 260 353 61 257 298 322 304 282 270 297 290 257 173 158 167 135 124 138 141 137 136 134 131 139 136 102 71 40
318 328 327 330 329 332 337 337 5 11 4 27 30 36 61 154 146 94 29 269 261 277 0 218 221 305 125 138 250 292 312 44 63 36 25 27 16 355 13 92 264 283 349 21 319 283 267 265 34 265 255 337 295 283 269 156 279 283 281 93 74 23 308 282 297 307 303 278 230 41 318 272 159 167 180 143 154 168 161 162 153 142 139 132 101 73 57 19
314 323 329 330 326 328 335 346 15 1 4 65 347 353 29 134 161 105 43 264 261 264 57 169 193 190 160 164 213 311 273 245 82 44 48 65 85 340 356 179 187 279 346 355 294 280 247 155 104 94 313 307 280 270 251 108 309 284 234 97 54 310 272 268 276 290 275 257 248 99 309 274 194 189 188 167 176 177 170 167 145 142 141 114 91 80 62 348
309 319 327 329 333 335 337 0 351 350 5 272 320 333 6 132 159 133 57 289 260 176 130 280 262 166 147 152 224 204 238 180 117 63 81 58 300 157 236 287 254 240 112 39 304 253 174 125 125 201 205 265 271 263 252 103 69 255 207 166 43 261 261 257 255 252 240 267 274 216 215 255 262 226 186 169 173 178 176 165 144 146 129 103 93 82 46 316
305 314 324 330 340 344 349 325 330 339 264 283 315 328 12 121 147 111 43 316 269 133 131 215 129 139 134 116 236 240 151 139 148 279 120 39 274 143 237 275 297 288 122 121 274 258 147 154 186 181 176 235 235 204 199 136 141 209 207 226 239 246 254 251 248 247 250 276 271 213 192 245 264 236 157 160 172 183 180 165 151 139 116 107 102 84 321 289
301 305 319 331 331 329 336 317 307 272 262 291 317 326 96 115 149 59 60 293 235 89 37 133 122 146 151 176 212 212 203 164 179 247 158 239 255 172 252 264 312 289 251 198 238 264 150 139 142 132 164 222 186 159 176 159 187 258 309 282 256 246 247 243 237 245 259 263 261 229 187 221 271 188 145 169 186 187 180 157 140 131 118 117 118 139 285 303
294 297 315 330 328 326 331 300 258 252 271 299 316 117 104 118 243 47 228 251 30 57 50 120 129 154 185 230 205 176 196 194 125 140 196 236 233 208 243 52 23 276 264 240 248 257 142 87 55 145 201 180 139 157 183 180 245 344 330 290 278 258 242 229 219 227 275 257 264 252 202 207 263 200 158 188 185 160 161 145 128 125 125 134 142 217 317 339
288 294 311 323 316 289 323 273 232 249 269 256 136 118 100 233 154 203 227 238 27 163 134 130 178 150 192 240 186 163 201 209 155 166 216 133 144 215 223 8 27 332 285 266 266 274 140 172 229 211 287 104 115 193 203 191 232 48 335 295 315 297 256 243 214 123 257 241 266 355 318 214 243 236 146 162 127 122 138 141 133 135 144 140 89 358 347 359
281 290 302 308 308 276 251 230 238 265 252 191 128 121 305 279 205 222 226 46 22 212 162 127 199 171 144 80 246 218 196 209 172 171 197 126 173 221 203 201 139 348 282 250 309 318 248 229 159 70 324 184 126 55 223 247 240 178 235 293 315 328 315 293 331 140 232 241 201 60 35 298 243 254 186 163 139 116 123 127 129 128 112 74 40 359 357 13
274 285 292 294 301 268 245 244 254 266 235 160 131 227 227 217 220 210 207 226 297 204 111 79 77 104 110 93 248 197 82 228 191 156 111 108 194 260 241 206 146 184 261 333 351 307 287 303 109 104 327 208 170 169 195 253 197 192 201 169 184 342 320 279 277 249 249 251 205 91 30 294 247 272 211 159 139 124 122 123 131 121 104 89 46 19 15 12
271 276 282 287 290 269 255 255 253 245 176 124 139 210 194 223 243 220 216 220 221 193 91 82 91 109 141 213 227 154 129 243 187 119 73 124 157 259 253 234 166 166 235 348 322 268 263 295 220 172 180 167 182 171 161 163 183 208 166 124 156 156 229 256 263 245 270 278 248 195 1 234 205 300 154 135 129 129 129 134 133 118 113 100 50 42 21 354
266 270 276 280 282 271 256 255 245 206 150 137 192 203 205 224 238 236 240 238 166 178 122 98 134 165 226 228 218 175 180 260 143 102 189 177 190 225 207 202 187 165 140 168 258 215 227 255 243 142 207 156 163 149 127 93 344 259 98 87 180 177 209 253 232 193 269 302 272 207 233 214 155 34 94 120 133 137 136 136 114 84 64 60 44 34 7 347
261 271 278 274 274 270 257 249 231 184 156 170 206 214 218 224 215 212 226 184 144 146 120 186 183 198 253 227 206 211 100 335 114 97 221 202 215 228 209 182 177 179 171 170 242 259 243 261 267 61 323 84 51 329 332 80 177 233 84 161 227 164 130 240 295 18 61 301 272 190 248 255 135 109 124 130 152 154 139 116 96 72 48 49 39 16 359 346
249 253 265 263 260 261 256 244 210 169 161 198 214 222 222 225 228 233 202 108 344 99 105 256 194 182 243 256 199 193 144 6 162 161 231 206 224 217 197 172 165 189 191 154 233 254 245 265 237 157 307 172 358 336 320 307 113 129 164 209 213 57 86 129 301 3 44 272 261 181 228 237 179 217 181 153 174 175 142 103 91 71 51 38 323 8 355 341
233 233 254 248 243 250 251 225 182 155 152 213 229 237 232 230 234 234 159 119 76 89 130 225 207 177 213 244 223 161 153 180 164 178 226 208 226 186 166 173 161 191 182 95 146 298 52 268 256 57 320 278 13 344 291 299 62 109 217 261 82 97 229 137 148 231 237 266 273 246 243 226 196 201 177 177 186 172 136 94 68 19 23 355 334 356 344 340
201 247 256 214 219 236 229 192 160 145 201 211 225 234 228 233 238 231 182 149 151 143 172 220 215 211 215 208 207 128 161 188 171 177 208 193 222 175 157 174 159 111 49 87 169 253 71 238 258 338 324 8 65 217 204 190 69 67 356 322 96 176 212 169 158 184 230 264 281 284 281 243 201 192 161 170 171 145 137 95 56 339 341 356 352 348 341 340
183 265 215 177 197 214 193 163 151 180 214 216 223 231 232 236 235 224 204 188 177 175 198 212 201 221 237 222 232 199 187 206 199 200 206 183 214 209 178 172 149 129 47 50 113 157 87 215 243 321 338 233 175 199 197 190 175 152 185 220 202 178 152 231 241 159 206 254 267 283 284 264 206 230 131 140 142 136 140 128 249 258 297 29 4 352 343 339
179 253 188 173 187 180 156 151 185 197 215 229 230 236 240 243 235 221 203 195 202 204 209 225 216 223 244 239 235 214 196 222 214 213 232 206 204 228 201 162 143 143 97 50 155 196 164 208 232 241 233 222 214 196 192 188 177 186 201 203 201 189 152 227 255 192 172 243 227 256 278 272 214 211 122 123 138 137 133 165 253 243 94 50 7 359 344 333
194 238 166 169 178 165 156 190 212 190 224 229 228 237 237 242 236 216 190 192 211 216 217 238 232 231 244 236 226 206 190 241 230 208 227 212 195 214 212 142 142 149 139 122 210 212 150 115 240 249 242 230 235 60 71 121 180 231 236 212 193 188 175 203 240 225 149 243 218 247 277 276 173 165 140 129 145 145 166 207 223 205 95 74 7 353 339 329
212 209 137 164 177 169 177 227 200 202 234 226 234 244 235 237 228 198 182 191 202 194 210 232 218 223 235 219 216 220 191 245 248 223 226 225 201 228 256 139 144 145 137 148 176 160 71 99 224 266 279 243 155 1 39 58 55 264 243 215 197 200 188 197 228 206 136 230 198 199 256 262 133 144 144 137 155 174 207 210 145 87 81 59 1 342 336 330
209 194 123 173 185 184 201 217 200 215 230 223 238 242 235 234 219 202 199 192 185 183 211 232 215 216 224 190 200 215 182 214 253 224 207 216 211 325 341 153 159 162 166 209 173 165 188 171 154 285 297 280 269 283 266 162 178 234 232 205 214 215 174 158 211 99 248 239 215 215 248 249 182 154 160 160 178 201 234 256 78 77 53 27 354 340 338 331
182 210 141 174 191 201 220 221 215 229 224 222 235 235 236 240 217 212 216 206 198 197 212 241 215 202 201 174 200 222 201 208 243 222 181 199 214 339 344 12 145 160 146 354 353 181 196 188 166 203 258 262 269 280 265 196 185 229 227 203 211 210 200 211 200 184 239 239 217 220 245 251 227 201 207 223 231 250 280 321 55 69 44 16 350 340 338 332
183 214 180 151 186 218 247 276 247 245 227 223 237 233 230 236 225 209 213 221 221 212 223 243 208 189 193 177 208 236 224 210 220 231 215 201 189 354 357 31 42 61 68 24 9 112 136 254 215 219 239 246 257 276 205 143 172 206 211 207 209 213 213 214 214 224 231 244 240 233 238 259 262 253 264 282 282 281 289 317 41 49 31 3 341 335 335 331
205 214 189 156 171 218 236 242 228 239 233 226 235 235 224 228 229 203 199 215 220 214 228 236 205 200 198 179 209 240 232 211 216 235 241 229 165 74 56 79 76 61 76 32 352 86 118 250 226 224 241 248 260 282 154 155 203 217 207 205 208 213 214 210 219 228 213 196 254 246 232 251 262 265 269 269 269 284 294 325 43 37 358 331 334 339 333 326
204 226 189 174 189 205 207 216 214 221 233 231 233 243 237 230 227 212 198 208 218 208 215 227 216 213 210 197 205 235 231 210 219 233 236 229 175 130 104 98 132 156 106 66 322 96 141 251 222 215 246 253 259 269 244 220 238 234 219 208 211 215 215 218 228 232 219 228 253 261 255 252 259 268 269 266 280 293 293 55 95 15 338 337 349 343 328 320
196 263 206 184 209 213 196 197 201 212 225 227 229 238 239 234 233 229 193 173 228 215 202 228 229 213 211 211 207 229 234 212 226 236 215 204 201 165 170 198 169 173 132 129 327 105 154 252 219 215 255 261 254 260 263 263 264 259 243 222 222 227 226 229 236 234 230 241 255 264 265 264 265 267 273 286 297 276 254 112 97 347 352 358 351 331 317 314
196 217 201 195 227 225 205 186 189 206 220 221 229 233 228 232 237 235 202 194 224 210 189 227 236 212 205 213 211 228 232 212 227 240 194 181 213 182 183 203 147 139 164 153 169 213 206 228 155 194 260 267 247 241 257 262 263 268 261 238 231 239 241 240 241 236 233 243 251 256 262 267 266 263 274 283 272 221 139 94 314 8 22 3 337 316 311 316
209 216 207 218 241 219 214 198 186 200 218 217 225 227 220 229 232 230 224 221 226 219 196 218 232 221 205 216 217 228 234 222 231 242 201 188 212 189 186 184 146 148 174 169 173 198 204 215 101 134 245 266 215 208 243 270 276 272 265 246 231 233 239 239 237 232 228 236 248 251 253 259 265 274 266 250 229 150 137 262 330 22 23 346 316 305 313 324
207 223 213 220 248 220 215 215 194 203 225 216 212 218 222 227 225 219 231 234 227 228 224 219 223 221 220 228 227 229 234 222 218 252 137 148 153 139 157 162 156 158 164 173 183 180 185 199 147 146 214 292 85 134 169 349 300 274 259 232 220 225 235 241 241 235 227 228 240 244 242 252 272 293 248 242 229 141 122 96 71 2 330 311 302 309 326 327